COSMOS 1302

Satellite information

Favourite Embed

Satellite Type and Status

PAYLOADIN ORBIT

Key statistics

Satellite COSMOS 1302 at a glance.

Uptime

16019

Days in orbit

Revolutions

≈ 14.3

Per day

Orbit

LEO

Low Earth Orbit

Inclination

74.0

Latest

Satellite identification and parameters

Extended collection of information and parameters for COSMOS 1302.

Object identification

Identified? True

Debris? False

Object name: COSMOS 1302

International designator: 1981-084A

Object number (NORAD): 12791

Object ID (CCSDS): 12791

Country: COMMONWEALTH OF INDEPENDENT STATES (CIS)

Current information (Y/N): Y

RCS size: LARGE

Orbital parameters

Period: 100.355 minutes

Inclination: 74.0267 deg

SMA: 7153.497 km

Apoapsis: 788.136 km

Periapsis: 762.588 km

RAAN: 147.1928 deg

Eccentricy: 0.0017857

Argument of periapsis: 22.3545 deg

Mean anomaly: 337.8381 deg

Mean motion: 14.34911634 rev/day

Mean motion (dot): 0.00000133 rev/day2

B* drag term: 0.000055979 1/REarth

Two-line elements (TLE)

Creation date: July 5, 2025, 5:45 p.m.

Reference frame: TEME

Reference center: EARTH

Epoch: July 5, 2025, 8:04 a.m. UTC

TLE line 0: 0 COSMOS 1302

TLE line 1: 1 12791U 81084A 25186.33614876 .00000133 00000-0 55979-4 0 9997

TLE line 2: 2 12791 74.0267 147.1928 0017857 22.3545 337.8381 14.34911634292977

Live tracking on map

Real-time ground track for satellite COSMOS 1302.

In-orbit conjunctions

A list of the most updated potential collisions computed for object COSMOS 1302.

Target Orbit TCA Probability of collision Miss distance Type
FENGYUN 1C DEB SSO 2025-06-23 09:20:45 0.0001115271 256.0 (m) DEBRIS
FENGYUN 1C DEB SSO 2024-10-24 13:23:34 0.0001130884 946.0 (m) DEBRIS
METEOR 2-7 DEB LEO 2024-09-01 22:51:03 0.0001617882 440.0 (m) DEBRIS
RITE TARGET 2 SSO 2024-07-22 16:02:28 0.000366229 214.0 (m) PAYLOAD

Associated space launch

Military communications satellite

COSMOS 1302 was lifted into orbit during the mission ‘Kosmos-3M | Strela-2M 25’, on board a Kosmos-3M space rocket.

The launch took place on Aug. 28, 1981, 4:18 p.m. from 132/1 (132L).

For more information about the launch, click the button.

Launch to space Kosmos-3M | Strela-2M 25
Kosmos-3M | Strela-2M 25

Agency: N/A

Status: Launch Successful

Launch date: Aug. 28, 1981, 4:18 p.m. UTC

Rocket: Kosmos-3M

Launch pad: 132/1 (132L)

Location: Plesetsk Cosmodrome, Russian Federation

...

Latest news about this satellite

There are no fresh news available about this satellite. Check back as we update our databases every day.


Newsletter sign-up

Weekly statistics, charts and insights to help you stay on top of the space industry.